Dewpoint
64 66 66 67 67 68 69 69 69 70 71 72 72 73 73 73 73 74 75 76 75 74 74 73 72 73 74 73 72 73 74 75 75 75 74 74 75 76 76 75 75 75 74 75 74 74 74 73 73 72 72 72 72 72 72 72 71 71 70 71 69 68 68 69 69 68 67 66 68 67 67 68 68 68 66 65 64 64 65 66 66 66 67 68 70
64 65 65 66 66 67 68 68 69 69 70 71 71 72 73 73 73 74 74 75 74 75 75 75 75 74 73 72 72 71 73 73 74 75 74 75 76 76 76 75 75 75 75 75 75 74 74 72 72 73 72 73 73 72 72 72 71 71 70 69 70 68 67 67 68 68 64 63 64 64 64 67 68 67 63 63 62 63 64 65 65 62 63 65 67
64 64 65 65 65 66 67 68 68 69 70 70 71 72 73 73 73 74 74 74 74 75 75 75 75 75 74 73 72 71 73 74 73 74 76 76 76 76 75 75 75 75 75 75 75 74 73 73 73 73 73 72 72 71 72 71 71 70 70 68 67 68 67 68 68 67 63 64 65 65 61 63 65 65 63 63 61 61 62 61 61 60 65 67 68
63 63 63 64 65 66 66 67 68 69 69 70 71 72 72 73 73 74 74 74 75 75 75 75 76 76 75 75 74 73 73 75 76 76 76 76 75 76 75 76 76 75 74 75 75 74 73 73 73 73 73 72 72 71 71 71 71 70 69 69 68 66 67 66 68 68 67 65 61 61 61 60 58 63 63 64 61 60 59 59 61 62 66 68 67
63 63 63 63 64 65 66 67 67 68 69 70 70 71 72 72 73 74 74 74 75 75 75 75 75 75 75 75 75 75 74 74 75 74 75 75 74 75 76 76 76 75 75 75 74 73 74 73 73 72 72 72 72 71 71 70 70 70 69 68 67 67 65 66 66 68 68 68 65 62 60 59 58 60 59 63 60 59 57 57 64 62 65 66 64
64 64 63 63 64 65 66 67 67 67 68 69 70 70 72 72 73 74 74 74 74 75 75 75 74 74 74 73 72 72 72 72 72 73 72 73 72 73 76 74 75 75 75 75 74 74 74 73 73 72 72 73 73 71 71 71 71 71 70 69 68 67 67 66 65 67 67 68 68 67 66 61 61 61 61 60 65 64 64 64 64 61 65 62 64
62 63 63 63 64 65 66 67 66 66 68 69 70 71 72 72 73 74 74 74 74 75 75 75 74 74 74 73 73 72 72 73 74 73 73 74 75 75 76 74 75 75 74 74 74 74 74 74 73 72 72 72 72 72 71 70 70 70 70 69 68 69 68 66 65 64 67 67 67 67 67 65 65 63 59 61 60 62 60 59 63 63 61 61 59
61 62 63 63 64 65 65 66 66 66 67 69 69 70 72 73 73 73 74 74 74 75 75 75 74 74 74 74 73 73 72 73 74 74 75 75 75 75 75 74 74 74 74 74 74 74 73 73 72 71 70 70 71 70 69 70 71 71 70 69 69 69 67 66 65 65 64 64 66 65 65 66 66 65 65 62 61 59 60 60 61 56 57 53 57
60 61 62 63 64 64 66 67 67 67 67 68 69 70 71 72 73 74 74 74 74 75 75 75 75 75 74 74 74 73 74 74 74 73 73 74 74 75 75 74 74 74 74 73 73 72 72 71 72 70 69 69 71 69 69 71 71 70 70 69 69 68 68 67 66 65 65 64 65 65 65 65 64 64 64 64 61 60 58 56 58 59 60 55 54
60 60 62 63 64 64 65 66 67 67 67 69 69 70 71 72 73 73 73 73 74 75 75 75 75 75 74 74 74 74 74 74 73 72 73 73 73 74 74 73 72 73 74 73 73 72 70 71 70 69 69 68 69 68 69 70 70 70 71 71 71 69 69 68 67 66 67 67 66 65 64 63 63 63 63 61 62 62 58 57 58 58 57 58 56
60 60 61 63 63 65 65 66 67 68 68 69 69 69 70 71 72 73 73 73 74 74 75 75 75 75 74 74 74 74 74 74 72 72 72 72 73 73 73 73 72 72 72 73 71 71 71 71 66 67 67 69 70 68 67 65 65 66 68 71 70 69 68 69 69 68 67 67 67 66 64 63 62 60 60 61 61 61 59 56 54 53 55 56 60
60 61 61 62 64 65 65 66 67 69 69 69 68 69 70 71 72 72 73 74 74 74 75 74 74 74 75 75 74 74 75 73 72 72 71 71 72 72 73 73 73 72 71 70 70 68 72 71 71 70 71 70 69 68 67 66 64 65 67 68 67 68 68 68 68 66 66 66 66 64 64 63 63 62 61 63 62 61 60 59 58 60 59 58 59
60 62 62 62 63 64 65 66 68 69 69 69 69 68 70 72 72 72 73 74 74 74 74 74 75 75 74 74 75 75 75 74 73 72 71 71 71 72 72 72 72 70 70 69 69 70 71 72 71 71 70 70 69 69 68 68 67 66 67 66 66 66 66 66 66 65 65 64 63 63 63 63 62 63 63 62 62 62 62 60 57 58 57 56 60
60 61 62 63 64 64 66 67 68 68 69 69 69 70 71 71 72 72 73 74 74 75 74 75 75 75 75 75 75 75 75 74 73 72 71 71 71 71 71 70 70 69 69 69 68 69 71 71 71 71 71 70 70 70 69 68 68 67 67 66 65 66 66 66 66 65 65 65 65 63 63 62 62 62 62 63 61 61 61 60 60 60 60 56 58
61 62 61 62 64 65 66 67 68 68 68 69 70 71 72 72 72 73 73 74 74 74 74 74 74 75 75 75 75 75 74 73 72 71 71 70 70 70 71 70 69 69 69 69 70 71 71 71 71 70 70 70 70 70 69 69 69 68 68 67 66 66 66 66 65 65 64 64 65 64 63 62 62 63 61 62 62 62 62 61 61 59 56 56 56
60 61 62 63 65 66 66 66 67 68 69 68 70 71 71 72 73 73 73 74 74 74 74 74 75 75 75 75 75 75 74 73 72 71 71 70 70 70 70 70 70 70 70 70 70 70 71 71 71 70 70 69 70 70 69 68 69 68 68 68 67 67 67 67 66 65 64 64 64 65 65 62 62 62 62 62 62 62 62 62 61 61 58 55 55
59 60 61 64 64 66 66 67 66 67 68 69 71 72 71 72 72 73 74 74 74 74 74 74 75 75 75 75 75 74 73 72 71 70 69 69 70 70 69 69 70 70 69 69 69 70 71 70 70 69 70 69 70 70 69 69 69 68 67 68 67 66 67 67 65 65 65 62 64 64 64 64 64 65 64 63 64 64 63 63 62 61 59 58 56
60 62 64 64 64 65 65 66 66 66 67 69 72 72 72 72 72 73 73 74 74 74 74 74 74 75 75 75 74 74 72 71 71 70 69 69 69 69 69 69 68 68 68 68 69 69 70 70 69 69 69 69 68 68 69 69 69 68 68 67 67 67 67 67 67 66 65 65 65 65 64 64 64 65 63 63 64 65 63 63 63 63 62 59 58
59 60 62 63 64 65 66 65 65 67 69 70 71 71 72 72 72 72 73 73 73 73 74 74 74 74 74 74 74 73 72 71 70 70 70 68 67 68 67 68 68 69 69 69 69 68 69 69 69 68 69 69 69 68 69 69 69 68 68 67 67 68 67 67 67 68 66 66 66 65 66 65 65 64 65 63 65 65 64 64 63 63 63 62 59
58 59 61 62 63 63 64 65 65 67 69 69 69 69 69 70 72 72 72 73 74 74 74 74 74 74 74 74 74 73 72 71 70 70 69 68 68 67 67 67 68 68 68 69 69 68 68 67 67 66 66 67 68 68 68 68 69 68 67 65 65 68 67 67 65 65 66 67 67 66 65 65 65 65 65 65 65 66 66 65 64 64 63 63 63
59 60 60 62 62 62 64 65 66 67 68 67 67 68 68 69 70 71 72 72 73 73 73 74 74 74 74 73 73 72 71 70 69 69 69 69 68 68 67 67 69 68 68 68 69 69 68 68 67 67 66 67 68 67 68 68 68 68 68 67 66 68 67 66 67 66 67 67 67 66 66 66 67 66 65 64 64 65 66 65 64 64 62 62 62
60 59 59 60 63 63 64 66 67 67 66 66 67 68 68 69 69 69 69 70 70 72 73 74 74 74 74 73 72 71 70 69 69 69 68 68 68 68 68 69 67 68 68 67 68 68 68 68 67 68 68 68 68 68 67 67 67 67 67 67 66 67 67 66 67 67 67 67 67 67 66 66 67 67 65 64 64 63 63 63 63 62 61 61 63
57 59 58 60 63 64 66 68 68 68 68 68 68 68 68 69 69 70 70 70 69 71 73 74 74 74 74 73 72 70 70 68 68 68 66 66 66 68 68 67 66 66 68 68 67 67 68 68 68 68 68 68 68 68 68 67 67 67 67 66 66 66 66 66 66 66 66 66 66 67 66 65 66 66 66 65 64 64 64 63 63 63 63 62 63
59 59 59 63 64 66 68 69 69 69 70 69 69 69 69 69 69 69 69 70 71 71 72 74 74 73 73 73 71 70 69 67 67 67 66 65 64 66 67 67 67 67 66 67 67 67 67 67 67 67 67 67 68 68 68 67 67 67 67 66 67 67 66 66 65 65 65 66 66 66 65 65 66 66 66 65 65 65 65 65 65 65 65 64 64
60 62 63 64 64 67 69 69 70 70 70 70 70 70 69 70 69 69 69 70 71 72 72 72 73 72 72 72 71 69 68 68 67 66 65 64 63 63 65 66 66 67 66 66 66 66 66 66 66 66 67 67 67 67 67 66 66 67 67 66 66 67 66 66 66 66 66 66 66 65 64 65 66 66 65 65 65 66 66 65 64 65 64 64 64
62 64 64 63 66 68 69 70 70 70 69 71 71 70 70 70 70 70 70 70 71 71 72 72 72 72 72 71 71 69 68 67 66 65 64 63 64 66 66 66 65 65 65 65 66 65 66 66 65 66 66 66 67 67 67 67 66 66 67 66 66 66 66 67 67 66 66 67 66 65 65 66 66 65 64 64 65 66 66 65 65 65 64 64 64
61 64 64 67 67 68 69 70 69 68 70 70 70 70 70 71 71 70 70 71 72 72 73 72 71 71 71 71 71 69 68 67 67 67 66 65 64 65 65 65 65 64 63 64 64 65 66 65 66 65 65 66 66 66 67 67 67 67 67 66 66 67 67 67 67 65 64 65 65 65 66 66 66 66 65 65 65 66 65 65 65 65 65 64 64
63 63 64 65 67 68 69 69 69 69 70 70 70 70 71 71 71 70 70 70 71 72 73 72 72 71 71 71 71 70 69 68 68 68 67 66 66 68 68 68 67 64 64 64 64 65 65 65 65 65 66 66 66 66 67 67 67 67 66 66 67 67 67 67 67 66 65 64 65 65 63 65 66 66 66 66 66 66 66 65 65 66 65 65 64
60 63 65 66 66 68 68 68 69 69 69 70 69 70 71 71 70 71 70 70 72 72 73 72 72 71 71 71 71 71 69 68 68 68 68 68 68 68 68 68 67 65 65 65 65 65 64 64 65 65 65 65 65 65 66 67 66 66 66 66 67 67 66 66 65 65 65 66 66 65 64 64 66 67 66 65 65 65 65 65 66 66 66 65 64
59 62 63 65 66 68 68 69 69 69 69 69 69 70 70 70 70 70 71 71 73 73 73 72 72 72 72 71 71 70 69 68 68 68 66 66 67 67 67 67 65 65 65 66 65 65 64 64 65 65 65 65 65 66 65 62 63 66 67 67 67 67 66 65 65 65 64 65 65 64 65 66 65 64 64 63 62 61 61 63 64 65 64 64 64
59 63 63 64 66 67 68 68 69 69 69 69 70 70 70 68 69 70 71 71 72 73 73 73 72 72 72 71 70 70 69 67 68 68 68 68 66 65 65 65 65 65 66 66 66 65 63 63 63 63 64 65 65 65 62 61 61 63 65 66 66 66 66 66 65 65 65 64 64 66 66 66 66 65 65 64 63 62 61 60 60 60 60 63 61
59 61 62 64 64 66 66 67 67 68 69 69 70 69 69 68 70 70 69 70 71 72 72 72 72 72 71 71 70 70 69 68 68 67 67 67 67 67 66 65 65 65 66 65 65 65 65 64 64 63 63 64 64 63 60 60 61 61 63 65 65 65 65 65 65 65 65 65 64 64 64 66 66 65 65 65 65 64 62 61 60 59 59 59 59
61 62 63 62 62 64 66 66 66 67 68 68 69 68 69 70 70 71 71 71 72 72 72 72 72 71 71 71 70 69 69 68 68 67 67 66 66 66 65 63 62 63 65 65 64 64 64 64 64 64 63 63 62 62 59 59 60 60 60 63 65 66 66 65 66 66 66 66 66 65 65 65 66 65 63 64 65 64 63 61 60 60 59 58 58
58 60 61 63 63 64 65 67 68 68 67 69 69 68 69 70 71 72 72 72 72 72 72 72 72 71 71 70 70 69 68 68 68 67 67 66 66 64 64 64 63 64 63 64 64 64 64 64 64 64 63 63 63 61 58 58 58 58 59 61 65 66 66 65 65 66 66 65 65 65 66 65 64 65 65 64 63 63 62 62 62 62 61 60 61
60 61 60 64 65 65 66 67 66 65 67 68 68 68 69 70 71 71 72 72 72 72 72 71 71 71 70 70 70 69 68 67 67 66 65 65 65 64 64 64 63 63 64 65 64 65 64 64 64 63 63 63 62 60 58 57 57 57 58 61 65 66 66 66 66 65 66 65 66 66 65 63 63 63 63 63 63 62 61 60 60 60 60 59 60
59 62 64 65 63 64 64 66 66 67 66 66 67 66 66 69 71 71 72 72 72 72 71 71 70 70 69 69 69 68 67 67 66 66 65 65 64 63 62 63 61 61 63 64 65 64 64 64 64 64 62 62 61 58 57 57 56 56 58 64 65 66 66 65 65 65 65 66 65 64 63 63 63 63 62 60 61 62 60 60 60 60 60 59 58
62 61 63 67 66 67 65 68 67 66 67 66 67 67 68 69 70 70 72 71 71 71 71 70 70 69 69 68 68 67 67 67 65 64 63 63 63 62 62 61 61 61 61 63 63 63 64 64 63 64 64 64 64 61 56 56 56 56 58 65 66 65 65 65 64 65 64 63 63 63 63 63 63 62 61 57 57 59 60 60 60 60 59 57 57
61 67 66 68 68 68 68 66 67 68 70 70 69 69 70 70 70 71 71 71 70 70 70 70 69 69 68 68 68 67 67 66 65 64 63 63 63 63 63 63 61 61 61 61 63 64 64 65 64 64 62 64 63 61 55 54 55 55 60 65 66 65 64 64 63 64 63 63 63 62 62 63 62 61 55 56 55 57 59 59 58 58 57 57 57
63 63 65 67 69 69 68 69 69 69 69 70 70 70 69 70 70 70 70 69 69 70 69 69 69 68 68 67 67 67 66 65 65 64 63 61 61 62 63 64 63 63 62 64 64 64 64 65 63 62 64 62 63 60 54 54 54 54 60 64 65 62 62 62 62 63 63 63 64 62 62 61 60 60 52 54 54 56 58 59 59 58 58 57 58
66 67 69 69 69 69 69 69 68 68 69 69 69 69 70 70 69 68 68 69 69 69 69 69 68 68 67 67 67 66 66 65 65 64 65 63 63 62 62 63 63 63 63 63 64 64 64 64 63 63 63 63 64 66 64 53 52 52 55 64 63 62 61 61 62 61 62 63 63 62 60 57 54 53 52 51 52 52 56 58 59 58 58 58 58
65 66 67 67 67 68 68 68 68 68 68 68 69 68 68 68 68 68 69 69 69 69 69 69 68 67 66 66 66 66 65 64 64 64 64 63 63 63 63 63 62 62 63 65 65 65 65 66 65 65 65 65 65 66 62 52 51 52 54 58 63 63 62 61 62 62 60 60 60 60 59 55 51 51 50 49 48 50 53 56 57 58 58 57 54
66 67 66 66 66 67 67 67 68 67 67 67 68 68 68 68 68 68 69 68 69 69 68 68 67 67 66 66 65 66 65 64 64 64 65 64 64 64 63 63 63 64 65 65 66 67 67 66 67 66 66 66 64 63 63 54 52 51 53 56 63 63 62 63 63 61 60 59 61 60 60 56 51 49 47 46 46 48 50 54 57 47 49 50 55
65 65 65 65 67 67 66 65 64 65 66 67 68 68 68 67 68 69 68 68 68 68 68 67 67 67 66 66 65 65 64 63 63 64 64 65 65 65 65 65 65 65 65 66 67 67 66 66 66 65 65 64 64 63 58 58 51 50 50 52 56 59 55 63 60 60 60 60 60 59 58 53 47 44 43 44 45 47 49 53 47 47 48 48 52
63 64 65 66 66 65 64 64 64 66 67 67 68 68 67 68 68 68 67 67 68 67 67 66 67 66 66 65 65 64 64 64 65 65 65 65 65 65 65 66 66 66 66 66 67 66 65 63 64 64 62 64 64 63 57 56 55 50 49 49 50 52 52 59 60 59 59 57 59 59 55 46 43 42 44 46 47 49 54 45 46 48 49 51 53
65 63 65 64 64 65 65 65 65 66 67 67 68 68 68 68 68 67 67 67 67 67 65 66 66 66 66 66 65 65 65 65 65 65 65 65 64 64 65 66 67 66 66 66 66 65 65 65 65 63 62 63 62 62 61 57 54 50 48 46 47 48 49 49 58 58 58 58 52 45 45 45 45 46 46 48 49 49 48 48 48 49 52 52 53
66 65 65 64 64 64 65 65 65 66 66 67 67 68 69 69 67 67 67 67 67 66 65 66 66 66 66 66 65 65 65 65 66 65 65 65 64 64 64 65 64 64 65 65 66 65 65 65 65 64 61 61 61 61 61 59 54 51 50 49 49 49 50 51 53 56 51 50 50 48 47 48 48 50 55 57 56 54 49 50 49 48 50 49 49
67 67 66 65 65 64 64 65 65 65 65 64 66 67 68 68 67 66 66 67 67 67 66 65 65 66 67 66 66 65 65 65 65 65 64 65 65 64 63 63 63 64 65 65 64 64 63 63 62 63 62 61 61 60 60 60 58 56 55 54 54 53 51 51 55 56 54 54 56 55 54 52 51 52 53 52 53 50 52 51 48 47 48 48 50
67 67 67 66 66 66 65 65 65 65 65 65 65 66 66 65 64 64 65 66 66 66 66 66 65 66 66 66 66 66 65 64 64 65 64 64 64 64 63 63 63 65 65 64 64 63 62 61 61 61 62 61 60 59 58 58 58 57 57 57 56 55 54 56 55 55 56 54 54 51 51 52 51 51 50 50 50 51 49 47 46 45 45 46 45
67 67 67 68 67 66 66 66 65 65 64 65 65 64 63 65 64 64 66 65 66 66 65 65 65 64 65 65 65 65 65 66 66 62 57 54 54 61 65 64 64 64 64 62 62 63 62 62 61 61 61 61 61 60 59 55 60 53 56 55 56 56 55 55 51 49 55 55 55 53 52 50 50 49 49 49 47 47 47 45 45 43 43 42 44
66 66 66 67 67 67 66 65 65 65 65 65 65 65 64 62 63 64 65 66 66 66 66 66 65 65 63 63 64 64 64 64 62 59 56 53 47 42 44 55 60 52 49 46 44 62 60 60 59 61 62 59 57 59 49 46 44 44 44 44 44 44 46 49 46 45 52 53 52 50 49 49 49 49 48 48 46 45 45 44 43 42 42 41 40
65 65 66 66 66 66 66 66 65 65 65 65 65 65 65 64 65 65 66 66 66 65 64 62 63 61 62 63 63 62 63 63 61 60 59 57 54 51 40 40 43 45 44 41 43 42 45 52 60 58 54 46 47 45 43 41 40 40 40 40 40 39 40 41 42 50 51 50 50 49 48 49 49 47 47 46 46 44 43 42 41 40 41 41 39